Location: Newark
(11.2914°S, 14.4718°E)
Time: 01:47:25
(UTC+00:00)

Tiros 1 despin weight - Pass Details

Date: 27 September 2019
Orbit: 594 x 643 km, 48.2° (Epoch: 16 October)

Event Time Altitude Azimuth Distance (km) Brightness Sun altitude
Rises 05:36:42 0° 237° (WSW) 2,946 ? 10.9°
Reaches altitude 10° 05:39:17 10° 248° (WSW) 2,034 ? 11.6°
Maximum altitude 05:43:19 29° 308° (NW) 1,181 ? 12.6°
Drops below altitude 10° 05:47:20 10° 8° (N) 2,018 ? 13.5°
Sets 05:49:54 0° 19° (NNE) 2,917 ? 14.2°
